カタログに戻る

DELTA 1 DEB

運用中SSO
NORAD 37643·DEBRIS·🇺🇸 United States

打ち上げ Mar 5, 1978 から Vandenberg Space Force Base

Loading…

次のパス (今後24時間)

TLE

最新Source: Space-Track

元期: Sep 13, 2026, 08:05 UTC

1 37643U 78026JE  26256.33747591  .00000349  00000-0  15053-3 0  9999
2 37643  98.7204 290.5654 0040931 299.5678  60.1428 14.30328680250989

AllMySatでDELTA 1 DEBをリアルタイム追跡

Download on the App Store